Starlink 31593

operational
NORAD ID: 59350 Int'l Des: 2024-060 Owner: SPXS Country: US Constellation: starlink
LEOCIRCULAR

About Starlink 31593

Description loading...

Live Position

Loading 3D Globe...

Upcoming Passes

Altitude History

Altitude vs Time

uPlot chart will show altitude changes over time

Two-Line Element Set

1 59350U 24060C 25305.18125364 .00002266 00000-0 91868-4 0 9991
2 59350 43.0005 265.2181 0001104 277.7266 82.3460 15.27571028 90419
Epoch: Nov 1, 2025 • Age: 17 hours

Current Status

Altitude 492.9 km
Velocity 7.62 km/s
Sub-Earth Point -35.87°S, 134.08°E
Launch Date Mar 31, 2024
Age 1.5 years
Type internet

Technical Details

Classification Payload
Mass 730.00 kg
Dry Mass 700.00 kg
Total Mass 730.00 kg
Length 0.30 m
Diameter 4.10 m
Span 29.00 m
Shape Box + pan
Manufacturer SPXS
Bus Type Starlink V2M
Phase Status In Orbit
Owner/State SPXS/US

Large Constellations

Loading constellations...